Location: Gro�sch�nbrunn
(49.5760°N, 11.8868°E)
Time: 04:58:49
(UTC+00:00)

Cosmos 2082 Rocket - Pass Details

Date: 18 September 2020
Orbit: 834 x 852 km, 71.0° (Epoch: 20 October)

Event Time Altitude Azimuth Distance (km) Brightness Sun altitude
Rises 22:23:40 0° 323° (NW) 3,393 6.1 -38.2°
Reaches altitude 10° 22:26:29 10° 310° (NW) 2,455 5.1 -38.3°
Enters shadow 22:28:05 17° 298° (WNW) 2,014 4.5 -38.4°
